Location: Cran-Gévrier
(45.9039°N, 6.1012°E)
Time: 06:25:21
(UTC+00:00)

SO-50 - Visible Passes

Search period start: 05 December 2023 00:00
Search period end: 15 December 2023 00:00
Orbit: 601 x 670 km, 64.6° (Epoch: 04 December)

Date Brightness Start Highest point End Pass type
(mag) Time Alt. Az. Time Alt. Az. Time Alt. Az.
05 Dec ? 04:56:35 18° N 04:56:35 18° N 04:58:37 10° NNE visible
06 Dec ? 03:41:23 10° NNE 03:41:23 10° NNE 03:41:27 10° NNE visible
06 Dec ? 05:18:51 13° NNW 05:18:51 13° NNW 05:20:34 10° N visible
07 Dec ? 04:03:34 11° NNE 04:03:34 11° NNE 04:03:45 10° NNE visible
08 Dec ? 04:25:42 10° N 04:25:42 10° N 04:25:50 10° N visible
